Skip Page Navigation
NASA JPL Caltech
NASA Logo - Jet Propulsion Laboratory + View the NASA Portal
+ Center for Near-Earth Object Studies
JPL Home Earth Solar System Stars & Galaxies Technology
JPL Solar System Dynamics
BODIES ORBITS EPHEMERIDES TOOLS PHYSICAL DATA DISCOVERY FAQ SITE MAP
IMPORTANT: The SSD Announcement email list is now available. Major changes are coming in the near future, including possible hostname and/or URL changes. To be notified of such changes, subscribe to this email list.

Please visit this page for more details.


JPL Small-Body Database Browser
Search: [ help ]  
11039 Raynal (1989 GH2)
Classification: Main-belt Asteroid          SPK-ID: 2011039
Ephemeris | Orbit Diagram | Orbital Elements | Mission Design | Physical Parameters | Discovery Circumstances | Close-Approach Data ]

[ show orbit diagram ]
Orbital Elements at Epoch 2459000.5 (2020-May-31.0) TDB
Reference: JPL 25 (heliocentric ecliptic J2000)
 Element Value Uncertainty (1-sigma)   Units 
e .06448061407458246 4.0858e-08  
a 2.884418784075192 1.5957e-08 au
q 2.698429689629763 1.2058e-07 au
i 1.778992211955625 4.4489e-06 deg
node 339.1654101141262 0.00013081 deg
peri 7.127289544479271 0.00013449 deg
M 351.0544036171639 3.1582e-05 deg
tp 2459044.962379184981
(2020-Jul-14.46237919)
0.00015704 TDB
period 1789.31127915682
4.90
1.4848e-05
4.065e-08
d
yr
n .2011947301699475 1.6696e-09 deg/d
Q 3.070407878520621 1.6986e-08 au
  Orbit Determination Parameters
   # obs. used (total)      1506  
   data-arc span      11872 days (32.50 yr)  
   first obs. used      1986-11-03  
   last obs. used      2019-05-06  
   planetary ephem.      DE431  
   SB-pert. ephem.      SB431-N16  
   condition code      0  
   norm. resid. RMS      .55281  
   source      ORB  
   producer      Otto Matic  
   solution date      2019-May-30 01:52:49  

Additional Information
 Earth MOID = 1.69103 au 
 Jupiter MOID = 2.21265 au 
 T_jup = 3.289 
[ show covariance matrix ]

Ephemeris | Orbit Diagram | Orbital Elements | Mission Design | Physical Parameters | Discovery Circumstances | Close-Approach Data ]

Physical Parameter Table
Parameter Symbol Value Units Sigma Reference Notes
absolute magnitude H 13.6   n/a MPO439163  
diameter diameter 5.703 km 0.174 urn:nasa:pds:neowise_diameters_albedos::2.0[mainbelt] (http://adsabs.harvard.edu/abs/2011ApJ...741...68M)  
geometric albedo albedo 0.237   0.032 urn:nasa:pds:neowise_diameters_albedos::2.0[mainbelt] (http://adsabs.harvard.edu/abs/2011ApJ...741...68M)  

11039 Raynal           Discovered 1989 Apr. 3 by E. W. Elst at the European Southern Observatory.
Guillaume-Thomas Raynal (1713-1796) wrote a six-volume history of the European colonies in India and America. His condemnation of the efforts of the colonists resulted in his condemnation by the Catholic church. In the French revolution he was elected to the States general, but he refused to serve, because he opposed violence.
NOTE: some special characters may not display properly (any characters within {} are an attempt to place the proper accent above a character)
Reference: 19990928/MPCPages.arcLast Updated: 2010-06-11

[ show close-approach data ]
Alternate Designations
 1989 GH2 = 1998 EF15 = 1999 JS28 
Ephemeris | Orbit Diagram | Orbital Elements | Mission Design | Physical Parameters | Discovery Circumstances | Close-Approach Data ]
ABOUT SSD CREDITS/AWARDS PRIVACY/COPYRIGHT GLOSSARY LINKS
FirstGov 2020-Mar-30 01:40 UT
(server date/time)  
NASA Home Page
Site Manager:   Ryan S. Park
Webmaster  Alan B. Chamberlin